TimeEST,TemperatureF,Dew PointF,Humidity,Sea Level PressureIn,VisibilityMPH,Wind Direction,Wind SpeedMPH,Gust SpeedMPH,PrecipitationIn,Events,Conditions,WindDirDegrees,DateUTC
12:54 AM,44.1,36.0,73,29.90,10.0,West,9.2,-,N/A,,Overcast,270,2012-11-07 05:54:00
1:54 AM,42.1,37.0,82,29.89,10.0,WSW,3.5,-,N/A,,Overcast,250,2012-11-07 06:54:00
2:54 AM,41.0,37.0,86,29.89,9.0,SW,3.5,-,N/A,,Overcast,230,2012-11-07 07:54:00
3:54 AM,41.0,39.0,93,29.89,7.0,West,3.5,-,0.00,Rain,Light Rain,260,2012-11-07 08:54:00
4:54 AM,39.9,39.0,97,29.89,5.0,WSW,3.5,-,0.02,Rain,Light Rain,250,2012-11-07 09:54:00
5:54 AM,39.9,39.9,100,29.90,4.0,Calm,Calm,-,0.01,Rain,Light Rain,0,2012-11-07 10:54:00
6:54 AM,39.9,39.9,100,29.91,3.0,Calm,Calm,-,0.01,Rain,Light Rain,0,2012-11-07 11:54:00
7:09 AM,39.2,39.2,100,29.90,2.0,Calm,Calm,-,0.01,Rain,Light Rain,0,2012-11-07 12:09:00
7:54 AM,39.9,39.9,100,29.93,1.8,Calm,Calm,-,0.02,Rain,Light Rain,0,2012-11-07 12:54:00
8:54 AM,41.0,39.9,96,29.94,2.0,NW,3.5,-,0.01,,Overcast,310,2012-11-07 13:54:00
9:41 AM,41.0,39.2,93,29.94,2.5,NNW,3.5,-,0.00,,Overcast,330,2012-11-07 14:41:00
9:54 AM,41.0,39.9,96,29.95,3.0,NNW,3.5,-,0.00,Rain,Light Rain,330,2012-11-07 14:54:00
10:54 AM,42.1,39.9,92,29.97,4.0,NNW,3.5,-,0.00,Rain,Light Rain,330,2012-11-07 15:54:00
11:54 AM,44.1,41.0,89,29.97,5.0,NW,5.8,-,0.00,,Overcast,310,2012-11-07 16:54:00
12:54 PM,46.0,39.9,79,29.96,5.0,NW,5.8,-,N/A,,Haze,320,2012-11-07 17:54:00
1:54 PM,48.0,37.9,68,29.94,10.0,North,6.9,-,N/A,,Scattered Clouds,360,2012-11-07 18:54:00
2:54 PM,50.0,37.0,61,29.95,10.0,Calm,Calm,-,N/A,,Overcast,0,2012-11-07 19:54:00
3:54 PM,48.9,37.9,66,29.97,10.0,WNW,5.8,-,N/A,,Overcast,300,2012-11-07 20:54:00
4:54 PM,48.0,37.0,66,30.00,10.0,West,6.9,-,N/A,,Overcast,280,2012-11-07 21:54:00
5:54 PM,46.0,37.9,73,30.02,10.0,West,3.5,-,N/A,,Overcast,270,2012-11-07 22:54:00
6:54 PM,45.0,37.0,74,30.05,10.0,WNW,4.6,-,N/A,,Scattered Clouds,300,2012-11-07 23:54:00
7:54 PM,42.1,35.1,76,30.06,10.0,WNW,3.5,-,N/A,,Clear,300,2012-11-08 00:54:00
8:54 PM,41.0,35.1,79,30.08,10.0,WNW,3.5,-,N/A,,Clear,290,2012-11-08 01:54:00
9:54 PM,39.0,35.1,86,30.11,8.0,NW,5.8,-,N/A,,Clear,310,2012-11-08 02:54:00
10:54 PM,37.0,33.1,86,30.11,8.0,NW,5.8,-,N/A,,Clear,320,2012-11-08 03:54:00
11:54 PM,36.0,32.0,86,30.12,9.0,NNW,4.6,-,N/A,,Clear,330,2012-11-08 04:54:00